ACA112 UUEE-OOMS

Flight info

Callsign ACA112
Flight time 4h 56m
Altitude 35000
Route EMGAS3H EMGAS T828 OLBEG N72 WGD/K0895F370 A927 SL/K0896F360 A964 NOKLI/K0898F370 N72 BISNA/N0491F370 N72 BAKUV N39 PIROG N23 ULDUS N39 NSH R794 DHN Y10 RERET M715 PURKI W32 BND/N0490F380 A453 KHM/N0485F390 N717 ULDUN L700 BUBAS Z890 GERAR
Aircraft B77W/H-SDE1E2E3FGHIJ2J3J4J5M1RWXY/LB1D1

Departure

Time 2026-05-08 08:06
Airport Sheremetyevo International Airport (UUEE)

Arrival

Time 2026-05-08 13:03
Airport Muscat International Airport (OOMS)
Time Latitude Longitude Altitude Speed Heading
2026-05-08 07:41 55.96407 37.40422 633 ft 0 kts 75°
2026-05-08 07:57 55.96407 37.40421 633 ft 1 kts 75°
2026-05-08 07:57 55.96400 37.40385 638 ft 4 kts 53°
2026-05-08 07:57 55.96389 37.40365 642 ft 4 kts
2026-05-08 07:57 55.96380 37.40365 638 ft 4 kts 318°
2026-05-08 07:58 55.96368 37.40390 639 ft 0 kts 296°
2026-05-08 07:59 55.96372 37.40374 639 ft 5 kts 296°
2026-05-08 08:00 55.96424 37.40257 642 ft 19 kts 334°
2026-05-08 08:00 55.96571 37.40182 636 ft 22 kts 345°
2026-05-08 08:00 55.96713 37.40154 638 ft 15 kts 33°
2026-05-08 08:00 55.96753 37.40332 639 ft 17 kts 74°
2026-05-08 08:01 55.96791 37.40587 639 ft 25 kts 75°
2026-05-08 08:01 55.96835 37.40882 637 ft 25 kts 75°
2026-05-08 08:01 55.96878 37.41178 635 ft 25 kts 75°
2026-05-08 08:01 55.96922 37.41473 641 ft 25 kts 75°
2026-05-08 08:02 55.96967 37.41768 640 ft 25 kts 75°
2026-05-08 08:02 55.97010 37.42060 639 ft 25 kts 75°
2026-05-08 08:02 55.97056 37.42356 639 ft 25 kts 75°
2026-05-08 08:02 55.97100 37.42651 641 ft 25 kts 75°
2026-05-08 08:03 55.97143 37.42943 643 ft 25 kts 75°
2026-05-08 08:03 55.97187 37.43239 642 ft 25 kts 75°
2026-05-08 08:03 55.97231 37.43535 642 ft 25 kts 75°
2026-05-08 08:03 55.97275 37.43831 640 ft 25 kts 75°
2026-05-08 08:04 55.97319 37.44125 641 ft 25 kts 75°
2026-05-08 08:04 55.97373 37.44372 641 ft 19 kts 37°
2026-05-08 08:04 55.97498 37.44391 639 ft 8 kts 344°
2026-05-08 08:04 55.97548 37.44344 642 ft 8 kts 311°
2026-05-08 08:05 55.97551 37.44243 641 ft 8 kts 259°
2026-05-08 08:05 55.97537 37.44141 640 ft 8 kts 255°
2026-05-08 08:05 55.97533 37.44114 640 ft 1 kts 255°
2026-05-08 08:05 55.97530 37.44089 640 ft 6 kts 255°
2026-05-08 08:06 55.97449 37.43529 634 ft 96 kts 256°
2026-05-08 08:06 55.97204 37.41840 652 ft 180 kts 259°
2026-05-08 08:06 55.96896 37.39500 1209 ft 204 kts 259°
2026-05-08 08:06 55.96492 37.36912 1876 ft 231 kts 257°
2026-05-08 08:07 55.95974 37.33909 2299 ft 267 kts 254°
2026-05-08 08:07 55.95400 37.30843 3471 ft 256 kts 254°
2026-05-08 08:07 55.94856 37.28023 5072 ft 228 kts 255°
2026-05-08 08:07 55.94481 37.25292 6057 ft 226 kts 259°
2026-05-08 08:08 55.94145 37.22494 6776 ft 237 kts 258°
2026-05-08 08:08 55.93762 37.19478 7059 ft 258 kts 257°
2026-05-08 08:08 55.93333 37.16367 7025 ft 261 kts 257°
2026-05-08 08:08 55.92873 37.13215 7022 ft 260 kts 257°
2026-05-08 08:09 55.92820 37.10094 7076 ft 258 kts 288°
2026-05-08 08:09 55.93778 37.07381 7839 ft 265 kts 313°
2026-05-08 08:09 55.95299 37.05445 8726 ft 273 kts 329°
2026-05-08 08:09 55.97149 37.04496 9566 ft 284 kts 351°
2026-05-08 08:10 55.99132 37.04453 10354 ft 292 kts 357°
2026-05-08 08:10 56.01177 37.04599 11189 ft 296 kts 357°
2026-05-08 08:10 56.03251 37.04711 12057 ft 300 kts 357°
2026-05-08 08:10 56.05367 37.05511 12478 ft 329 kts 24°
2026-05-08 08:11 56.07161 37.08236 13162 ft 350 kts 52°
2026-05-08 08:11 56.08233 37.12229 13972 ft 362 kts 76°
2026-05-08 08:11 56.08425 37.16741 14776 ft 366 kts 99°
2026-05-08 08:11 56.07690 37.21023 15622 ft 365 kts 121°
2026-05-08 08:12 56.06190 37.24623 16452 ft 360 kts 141°
2026-05-08 08:12 56.04304 37.27634 17214 ft 366 kts 144°
2026-05-08 08:12 56.02328 37.30599 18074 ft 372 kts 145°
2026-05-08 08:12 56.00348 37.33532 18892 ft 376 kts 145°
2026-05-08 08:13 55.98326 37.36538 19729 ft 379 kts 145°
2026-05-08 08:13 55.96288 37.39590 20548 ft 383 kts 144°
2026-05-08 08:13 55.94237 37.42685 21347 ft 388 kts 144°
2026-05-08 08:13 55.92188 37.45788 22134 ft 392 kts 144°
2026-05-08 08:14 55.90087 37.48977 22941 ft 397 kts 144°
2026-05-08 08:14 55.87974 37.52187 23730 ft 401 kts 144°
2026-05-08 08:14 55.85856 37.55400 24390 ft 405 kts 144°
2026-05-08 08:14 55.83698 37.58673 25101 ft 407 kts 144°
2026-05-08 08:15 55.81533 37.61950 25810 ft 409 kts 144°
2026-05-08 08:15 55.79353 37.65244 26515 ft 412 kts 144°
2026-05-08 08:15 55.77155 37.68560 27298 ft 415 kts 144°
2026-05-08 08:15 55.74959 37.71868 27972 ft 420 kts 144°
2026-05-08 08:16 55.72713 37.75245 28610 ft 424 kts 144°
2026-05-08 08:16 55.70447 37.78645 29270 ft 426 kts 145°
2026-05-08 08:16 55.68072 37.81608 29724 ft 419 kts 161°
2026-05-08 08:16 55.65301 37.83032 30151 ft 414 kts 177°
2026-05-08 08:17 55.62402 37.83389 30257 ft 422 kts 185°
2026-05-08 08:17 55.59429 37.83116 30382 ft 431 kts 191°
2026-05-08 08:17 55.56493 37.82169 30450 ft 438 kts 199°
2026-05-08 08:18 55.50546 37.78868 30678 ft 456 kts 202°
2026-05-08 08:18 55.47500 37.77099 30892 ft 462 kts 201°
2026-05-08 08:18 55.44414 37.75350 31170 ft 465 kts 201°
2026-05-08 08:18 55.41370 37.73669 31548 ft 465 kts 200°
2026-05-08 08:19 55.38271 37.71985 32033 ft 463 kts 200°
2026-05-08 08:19 55.35190 37.70318 32531 ft 461 kts 200°
2026-05-08 08:19 55.32116 37.68672 32979 ft 460 kts 199°
2026-05-08 08:19 55.29006 37.67544 33371 ft 464 kts 191°
2026-05-08 08:20 55.25779 37.67087 33782 ft 466 kts 185°
2026-05-08 08:20 55.22514 37.67170 34149 ft 469 kts 179°
2026-05-08 08:20 55.19250 37.67880 34441 ft 472 kts 175°
2026-05-08 08:20 55.16038 37.68709 34694 ft 473 kts 175°
2026-05-08 08:21 55.12767 37.69558 34932 ft 474 kts 175°
2026-05-08 08:21 55.06166 37.71173 35018 ft 478 kts 176°
2026-05-08 08:22 54.99639 37.72749 35013 ft 475 kts 174°
2026-05-08 08:22 54.93177 37.75391 35020 ft 477 kts 169°
2026-05-08 08:23 54.86674 37.77805 35014 ft 475 kts 176°
2026-05-08 08:23 54.80136 37.79244 35016 ft 477 kts 176°
2026-05-08 08:24 54.73527 37.80724 35012 ft 478 kts 175°
2026-05-08 08:24 54.66953 37.82250 35015 ft 479 kts 175°
2026-05-08 08:25 54.60311 37.83028 35016 ft 477 kts 181°
2026-05-08 08:25 54.53667 37.83376 35010 ft 478 kts 181°
2026-05-08 08:26 54.47062 37.84482 34999 ft 482 kts 169°
2026-05-08 08:26 54.40704 37.88423 35001 ft 488 kts 155°
2026-05-08 08:27 54.34779 37.94033 35007 ft 489 kts 153°
2026-05-08 08:27 54.28823 37.99730 34998 ft 489 kts 154°
2026-05-08 08:28 54.22873 38.05309 35001 ft 489 kts 154°
2026-05-08 08:28 54.16895 38.10847 35000 ft 489 kts 154°
2026-05-08 08:29 54.10926 38.16351 35001 ft 488 kts 154°
2026-05-08 08:29 54.04928 38.21868 34996 ft 488 kts 154°
2026-05-08 08:30 53.98976 38.27329 34997 ft 488 kts 154°
2026-05-08 08:30 53.89991 38.35538 34998 ft 488 kts 154°
2026-05-08 08:31 53.84039 38.40953 35003 ft 488 kts 154°
2026-05-08 08:31 53.78046 38.46390 34997 ft 488 kts 154°
2026-05-08 08:32 53.72279 38.52476 35002 ft 490 kts 143°
2026-05-08 08:32 53.67053 38.59811 34994 ft 490 kts 141°
2026-05-08 08:33 53.61805 38.67189 35001 ft 490 kts 142°
2026-05-08 08:33 53.56553 38.74450 34999 ft 490 kts 142°
2026-05-08 08:34 53.51257 38.81725 34999 ft 491 kts 142°
2026-05-08 08:34 53.46839 38.87754 34995 ft 490 kts 144°
2026-05-08 08:35 53.41086 38.93809 34994 ft 488 kts 155°
2026-05-08 08:35 53.33819 38.98957 34998 ft 488 kts 159°
2026-05-08 08:36 53.28578 39.02533 34998 ft 489 kts 159°
2026-05-08 08:36 53.22272 39.06883 35001 ft 490 kts 159°
2026-05-08 08:37 53.15957 39.11263 35004 ft 491 kts 159°
2026-05-08 08:37 53.09675 39.15613 35001 ft 493 kts 159°
2026-05-08 08:38 53.03322 39.19995 35012 ft 494 kts 159°
2026-05-08 08:38 52.96955 39.24371 35011 ft 494 kts 159°
2026-05-08 08:39 52.90637 39.28697 35009 ft 494 kts 159°
2026-05-08 08:39 52.84273 39.33043 35016 ft 494 kts 159°
2026-05-08 08:40 52.77895 39.37384 35021 ft 494 kts 159°
2026-05-08 08:40 52.71533 39.41703 35023 ft 493 kts 159°
2026-05-08 08:41 52.65212 39.45979 35019 ft 491 kts 159°
2026-05-08 08:41 52.58886 39.50245 35018 ft 490 kts 159°
2026-05-08 08:42 52.52614 39.54462 35022 ft 489 kts 159°
2026-05-08 08:42 52.46329 39.58676 35022 ft 490 kts 158°
2026-05-08 08:43 52.40122 39.63404 35034 ft 491 kts 153°
2026-05-08 08:43 52.33997 39.68507 35034 ft 494 kts 153°
2026-05-08 08:44 52.27887 39.73557 35035 ft 495 kts 153°
2026-05-08 08:44 52.21748 39.78584 35030 ft 493 kts 153°
2026-05-08 08:45 52.15619 39.83577 35031 ft 487 kts 153°
2026-05-08 08:45 52.09608 39.88462 35032 ft 484 kts 153°
2026-05-08 08:46 52.03560 39.93366 35046 ft 485 kts 153°
2026-05-08 08:46 51.97532 39.98240 35039 ft 487 kts 153°
2026-05-08 08:47 51.91419 40.03182 35050 ft 493 kts 153°
2026-05-08 08:47 51.85270 40.08140 35041 ft 493 kts 153°
2026-05-08 08:48 51.79142 40.13046 35042 ft 493 kts 153°
2026-05-08 08:48 51.72995 40.17950 35046 ft 492 kts 153°
2026-05-08 08:49 51.67130 40.23635 35051 ft 490 kts 146°
2026-05-08 08:49 51.61472 40.29653 35042 ft 490 kts 146°
2026-05-08 08:50 51.55730 40.35612 35039 ft 489 kts 147°
2026-05-08 08:50 51.50009 40.41438 35038 ft 489 kts 147°
2026-05-08 08:51 51.44253 40.47300 35034 ft 489 kts 147°
2026-05-08 08:51 51.38512 40.53167 35038 ft 488 kts 147°
2026-05-08 08:52 51.32874 40.59112 35034 ft 487 kts 142°
2026-05-08 08:52 51.27868 40.66375 35035 ft 485 kts 132°
2026-05-08 08:53 51.23273 40.74317 35028 ft 485 kts 131°
2026-05-08 08:53 51.18695 40.82153 35036 ft 485 kts 132°
2026-05-08 08:54 51.14050 40.89992 35032 ft 485 kts 132°
2026-05-08 08:54 51.09424 40.97769 35032 ft 486 kts 132°
2026-05-08 08:55 51.04759 41.05585 35032 ft 486 kts 133°
2026-05-08 08:55 51.00112 41.13339 35028 ft 486 kts 133°
2026-05-08 08:56 50.95444 41.21109 35024 ft 486 kts 133°
2026-05-08 08:56 50.90795 41.28825 35025 ft 485 kts 133°
2026-05-08 08:57 50.86111 41.36575 35025 ft 485 kts 133°
2026-05-08 08:57 50.81436 41.44290 35025 ft 485 kts 133°
2026-05-08 08:58 50.76785 41.51940 35021 ft 485 kts 133°
2026-05-08 08:58 50.72095 41.59630 35019 ft 485 kts 133°
2026-05-08 08:59 50.67397 41.67312 35016 ft 485 kts 133°
2026-05-08 08:59 50.62726 41.74945 35020 ft 486 kts 133°
2026-05-08 09:00 50.58054 41.82582 35015 ft 486 kts 133°
2026-05-08 09:00 50.53358 41.90235 35014 ft 486 kts 133°
2026-05-08 09:01 50.48652 41.97879 35006 ft 486 kts 133°
2026-05-08 09:01 50.43936 42.05515 35001 ft 486 kts 133°
2026-05-08 09:02 50.39248 42.13087 35007 ft 486 kts 133°
2026-05-08 09:02 50.34465 42.20620 35006 ft 486 kts 136°
2026-05-08 09:03 50.29414 42.27688 35006 ft 486 kts 137°
2026-05-08 09:03 50.24363 42.34654 35008 ft 486 kts 137°
2026-05-08 09:04 50.19288 42.41673 35010 ft 486 kts 137°
2026-05-08 09:04 50.14257 42.48641 35011 ft 486 kts 137°
2026-05-08 09:05 50.09213 42.55614 35010 ft 486 kts 137°
2026-05-08 09:05 50.04140 42.62608 35012 ft 486 kts 137°
2026-05-08 09:06 49.99065 42.69581 35007 ft 485 kts 137°
2026-05-08 09:06 49.94031 42.76476 35003 ft 485 kts 137°
2026-05-08 09:07 49.88961 42.83400 34999 ft 485 kts 137°
2026-05-08 09:07 49.83888 42.90310 35007 ft 485 kts 137°
2026-05-08 09:08 49.78809 42.97207 35005 ft 485 kts 138°
2026-05-08 09:08 49.73755 43.04049 35008 ft 485 kts 138°
2026-05-08 09:09 49.68668 43.10918 35009 ft 485 kts 138°
2026-05-08 09:09 49.63594 43.17751 35010 ft 485 kts 138°
2026-05-08 09:10 49.58495 43.24595 35006 ft 486 kts 138°
2026-05-08 09:10 49.53411 43.31400 35009 ft 486 kts 138°
2026-05-08 09:11 49.48288 43.38237 35010 ft 487 kts 138°
2026-05-08 09:11 49.43158 43.45066 35005 ft 487 kts 138°
2026-05-08 09:12 49.38045 43.51853 35010 ft 487 kts 138°
2026-05-08 09:12 49.32934 43.58617 35013 ft 488 kts 138°
2026-05-08 09:13 49.27777 43.65426 35011 ft 488 kts 138°
2026-05-08 09:13 49.22656 43.72309 35007 ft 489 kts 136°
2026-05-08 09:14 49.17696 43.79335 35006 ft 489 kts 136°
2026-05-08 09:14 49.12705 43.86411 35006 ft 489 kts 136°
2026-05-08 09:15 49.07722 43.93399 35013 ft 488 kts 136°
2026-05-08 09:15 49.02699 44.00396 35010 ft 488 kts 137°
2026-05-08 09:16 48.97670 44.07382 35016 ft 488 kts 137°
2026-05-08 09:16 48.92668 44.14315 35018 ft 488 kts 136°
2026-05-08 09:17 48.87637 44.21270 35026 ft 487 kts 137°
2026-05-08 09:17 48.82627 44.28177 35025 ft 487 kts 137°
2026-05-08 09:18 48.77933 44.35571 35027 ft 485 kts 127°
2026-05-08 09:18 48.74209 44.44022 35024 ft 484 kts 119°
2026-05-08 09:19 48.70816 44.52853 35022 ft 484 kts 119°
2026-05-08 09:19 48.67400 44.61585 35014 ft 484 kts 120°
2026-05-08 09:20 48.63934 44.70326 35010 ft 483 kts 120°
2026-05-08 09:20 48.60483 44.79015 35002 ft 483 kts 120°
2026-05-08 09:21 48.57007 44.87750 34997 ft 483 kts 120°
2026-05-08 09:23 48.45462 45.16570 34993 ft 482 kts 120°
2026-05-08 09:23 48.43519 45.20670 34978 ft 481 kts 133°
2026-05-08 09:23 48.39894 45.24518 34996 ft 485 kts 156°
2026-05-08 09:23 48.36647 45.25869 35006 ft 487 kts 172°
2026-05-08 09:24 48.34401 45.26107 35003 ft 488 kts 180°
2026-05-08 09:24 48.31044 45.25447 34991 ft 488 kts 196°
2026-05-08 09:24 48.27806 45.23848 34998 ft 488 kts 199°
2026-05-08 09:25 48.21339 45.20453 34999 ft 493 kts 199°
2026-05-08 09:25 48.14852 45.17242 34996 ft 495 kts 198°
2026-05-08 09:26 48.08275 45.14086 34995 ft 494 kts 197°
2026-05-08 09:26 48.04936 45.12968 34990 ft 492 kts 184°
2026-05-08 09:26 48.01523 45.13104 35002 ft 490 kts 171°
2026-05-08 09:26 47.98261 45.14307 35000 ft 488 kts 158°
2026-05-08 09:27 47.95217 45.16488 35013 ft 484 kts 151°
2026-05-08 09:27 47.89236 45.21164 34999 ft 485 kts 151°
2026-05-08 09:28 47.83208 45.25772 35002 ft 487 kts 152°
2026-05-08 09:28 47.77182 45.30284 35002 ft 487 kts 152°
2026-05-08 09:29 47.71100 45.34803 35004 ft 488 kts 152°
2026-05-08 09:29 47.65003 45.39324 35002 ft 488 kts 152°
2026-05-08 09:30 47.58950 45.43804 35003 ft 489 kts 152°
2026-05-08 09:30 47.52850 45.48310 35001 ft 489 kts 152°
2026-05-08 09:31 47.46793 45.52772 35003 ft 488 kts 153°
2026-05-08 09:31 47.40695 45.57251 35004 ft 488 kts 153°
2026-05-08 09:32 47.34640 45.61688 35004 ft 488 kts 153°
2026-05-08 09:32 47.28548 45.66143 35003 ft 487 kts 153°
2026-05-08 09:33 47.22503 45.70552 35006 ft 487 kts 153°
2026-05-08 09:33 47.16429 45.74980 35004 ft 486 kts 153°
2026-05-08 09:34 47.10352 45.79409 35009 ft 486 kts 153°
2026-05-08 09:34 47.04320 45.83793 35009 ft 486 kts 153°
2026-05-08 09:35 46.98253 45.88192 35007 ft 486 kts 153°
2026-05-08 09:35 46.92215 45.92556 35007 ft 485 kts 153°
2026-05-08 09:36 46.86147 45.96932 35008 ft 485 kts 153°
2026-05-08 09:36 46.80071 46.01302 35012 ft 485 kts 153°
2026-05-08 09:37 46.74049 46.05626 35011 ft 484 kts 153°
2026-05-08 09:37 46.68006 46.09950 35007 ft 483 kts 153°
2026-05-08 09:38 46.61960 46.14266 35010 ft 482 kts 153°
2026-05-08 09:38 46.55963 46.18537 35013 ft 482 kts 153°
2026-05-08 09:39 46.49913 46.22834 35006 ft 481 kts 153°
2026-05-08 09:39 46.43928 46.27077 35012 ft 481 kts 153°
2026-05-08 09:40 46.37896 46.31341 35008 ft 480 kts 153°
2026-05-08 09:40 46.31877 46.35585 35014 ft 480 kts 153°
2026-05-08 09:41 46.25898 46.39792 35015 ft 480 kts 153°
2026-05-08 09:41 46.19884 46.44012 35015 ft 479 kts 153°
2026-05-08 09:42 46.13916 46.48192 35017 ft 479 kts 153°
2026-05-08 09:42 46.07909 46.52388 35017 ft 479 kts 153°
2026-05-08 09:43 46.01951 46.56556 35018 ft 478 kts 153°
2026-05-08 09:43 45.95962 46.60737 35022 ft 478 kts 153°
2026-05-08 09:44 45.90003 46.64900 35029 ft 477 kts 153°
2026-05-08 09:44 45.84026 46.69080 35022 ft 477 kts 153°
2026-05-08 09:45 45.78051 46.73250 35030 ft 477 kts 153°
2026-05-08 09:45 45.72103 46.77390 35033 ft 476 kts 153°
2026-05-08 09:46 45.66130 46.81523 35034 ft 476 kts 153°
2026-05-08 09:46 45.60179 46.85595 35030 ft 476 kts 153°
2026-05-08 09:47 45.54201 46.89683 35042 ft 475 kts 153°
2026-05-08 09:47 45.48231 46.93770 35039 ft 475 kts 153°
2026-05-08 09:48 45.42300 46.97850 35044 ft 475 kts 153°
2026-05-08 09:48 45.36342 47.01943 35051 ft 474 kts 153°
2026-05-08 09:49 45.30429 47.05992 35051 ft 474 kts 153°
2026-05-08 09:49 45.24468 47.10064 35052 ft 474 kts 153°
2026-05-08 09:50 45.18562 47.14089 35049 ft 473 kts 153°
2026-05-08 09:50 45.12610 47.18136 35050 ft 473 kts 153°
2026-05-08 09:51 45.06694 47.22151 35060 ft 473 kts 153°
2026-05-08 09:51 45.00735 47.26184 35056 ft 473 kts 153°
2026-05-08 09:52 44.94825 47.30177 35056 ft 473 kts 153°
2026-05-08 09:52 44.88870 47.34195 35059 ft 473 kts 153°
2026-05-08 09:53 44.82944 47.38184 35053 ft 474 kts 153°
2026-05-08 09:53 44.76968 47.42197 35057 ft 474 kts 153°
2026-05-08 09:54 44.71036 47.46171 35073 ft 475 kts 153°
2026-05-08 09:54 44.65053 47.50170 35080 ft 475 kts 153°
2026-05-08 09:55 44.59097 47.54144 35076 ft 475 kts 153°
2026-05-08 09:55 44.53114 47.58127 35070 ft 475 kts 153°
2026-05-08 09:56 44.47160 47.62086 35071 ft 475 kts 154°
2026-05-08 09:56 44.41175 47.66073 35066 ft 476 kts 154°
2026-05-08 09:57 44.32219 47.72031 35074 ft 476 kts 154°
2026-05-08 09:57 44.26218 47.76011 35076 ft 476 kts 154°
2026-05-08 09:58 44.20252 47.79957 35078 ft 476 kts 154°
2026-05-08 09:58 44.14243 47.83922 35075 ft 477 kts 155°
2026-05-08 09:59 44.08263 47.87859 35078 ft 477 kts 155°
2026-05-08 09:59 44.02248 47.91811 35078 ft 478 kts 155°
2026-05-08 10:00 43.96221 47.95762 35077 ft 478 kts 156°
2026-05-08 10:00 43.90238 47.99674 35074 ft 478 kts 156°
2026-05-08 10:01 43.84203 48.03613 35080 ft 479 kts 156°
2026-05-08 10:01 43.78186 48.07530 35090 ft 479 kts 156°
2026-05-08 10:02 43.72130 48.11464 35087 ft 480 kts 156°
2026-05-08 10:02 43.66101 48.15372 35095 ft 481 kts 156°
2026-05-08 10:03 43.60020 48.19305 35081 ft 482 kts 156°
2026-05-08 10:03 43.53941 48.23228 35090 ft 482 kts 156°
2026-05-08 10:04 43.47895 48.27121 35098 ft 482 kts 156°
2026-05-08 10:04 43.41813 48.31028 35106 ft 481 kts 156°
2026-05-08 10:05 43.35729 48.34929 35104 ft 481 kts 157°
2026-05-08 10:05 43.29692 48.38792 35103 ft 481 kts 157°
2026-05-08 10:06 43.23629 48.42704 35102 ft 480 kts 155°
2026-05-08 10:06 43.17930 48.47487 35109 ft 482 kts 149°
2026-05-08 10:07 43.12323 48.52574 35106 ft 482 kts 149°
2026-05-08 10:07 43.06729 48.57596 35112 ft 482 kts 149°
2026-05-08 10:08 43.01093 48.62606 35117 ft 482 kts 149°
2026-05-08 10:08 42.95491 48.67567 35114 ft 483 kts 150°
2026-05-08 10:09 42.89846 48.72557 35110 ft 483 kts 150°
2026-05-08 10:09 42.84189 48.77550 35117 ft 483 kts 150°
2026-05-08 10:10 42.78564 48.82505 35123 ft 483 kts 150°
2026-05-08 10:10 42.73855 48.86621 35118 ft 483 kts 151°
2026-05-08 10:11 42.67176 48.92179 35124 ft 482 kts 152°
2026-05-08 10:11 42.62391 48.96112 35126 ft 482 kts 152°
2026-05-08 10:12 42.56668 49.00836 35126 ft 482 kts 152°
2026-05-08 10:12 42.50923 49.05589 35127 ft 482 kts 152°
2026-05-08 10:13 42.45211 49.10305 35129 ft 481 kts 153°
2026-05-08 10:13 42.39481 49.15025 35134 ft 481 kts 153°
2026-05-08 10:14 42.33789 49.19703 35135 ft 481 kts 153°
2026-05-08 10:14 42.28088 49.24380 35135 ft 480 kts 153°
2026-05-08 10:15 42.22237 49.28703 35138 ft 475 kts 160°
2026-05-08 10:15 42.16074 49.31654 35141 ft 471 kts 166°
2026-05-08 10:16 42.09816 49.34392 35139 ft 471 kts 166°
2026-05-08 10:16 42.03611 49.37141 35138 ft 471 kts 166°
2026-05-08 10:17 41.97386 49.39922 35142 ft 471 kts 166°
2026-05-08 10:17 41.91151 49.42710 35141 ft 471 kts 166°
2026-05-08 10:18 41.84925 49.45487 35145 ft 471 kts 166°
2026-05-08 10:18 41.78744 49.48236 35146 ft 470 kts 167°
2026-05-08 10:19 41.72508 49.51005 35147 ft 470 kts 167°
2026-05-08 10:20 41.63223 49.55116 35145 ft 469 kts 167°
2026-05-08 10:20 41.57015 49.57858 35148 ft 469 kts 167°
2026-05-08 10:21 41.50830 49.60584 35148 ft 468 kts 167°
2026-05-08 10:21 41.44666 49.63296 35158 ft 468 kts 167°
2026-05-08 10:22 41.38465 49.66018 35150 ft 467 kts 167°
2026-05-08 10:22 41.32283 49.68727 35137 ft 467 kts 167°
2026-05-08 10:23 41.26121 49.71422 35140 ft 467 kts 167°
2026-05-08 10:23 41.19966 49.74108 35144 ft 466 kts 167°
2026-05-08 10:24 41.13817 49.76787 35149 ft 466 kts 167°
2026-05-08 10:24 41.07633 49.79467 35155 ft 466 kts 168°
2026-05-08 10:25 41.01480 49.82100 35149 ft 465 kts 168°
2026-05-08 10:25 40.95338 49.84722 35144 ft 465 kts 168°
2026-05-08 10:26 40.89164 49.87356 35141 ft 465 kts 168°
2026-05-08 10:26 40.83002 49.89982 35142 ft 464 kts 168°
2026-05-08 10:27 40.76873 49.92590 35137 ft 464 kts 168°
2026-05-08 10:27 40.70728 49.95199 35126 ft 463 kts 168°
2026-05-08 10:28 40.64620 49.97787 35128 ft 462 kts 168°
2026-05-08 10:28 40.58480 50.00383 35126 ft 462 kts 168°
2026-05-08 10:29 40.52395 50.02952 35123 ft 461 kts 168°
2026-05-08 10:29 40.46279 50.05526 35125 ft 460 kts 169°
2026-05-08 10:30 40.40205 50.07996 35123 ft 458 kts 169°
2026-05-08 10:30 40.34104 50.10443 35125 ft 457 kts 170°
2026-05-08 10:31 40.28038 50.12879 35129 ft 456 kts 170°
2026-05-08 10:31 40.21957 50.15325 35126 ft 456 kts 170°
2026-05-08 10:32 40.15915 50.17753 35134 ft 455 kts 170°
2026-05-08 10:32 40.09844 50.20187 35137 ft 455 kts 170°
2026-05-08 10:33 40.03801 50.22606 35140 ft 455 kts 170°
2026-05-08 10:33 39.97738 50.25028 35146 ft 455 kts 170°
2026-05-08 10:34 39.91712 50.27431 35144 ft 454 kts 170°
2026-05-08 10:34 39.85658 50.29841 35146 ft 454 kts 171°
2026-05-08 10:35 39.79625 50.32241 35143 ft 455 kts 171°
2026-05-08 10:35 39.73555 50.34660 35145 ft 455 kts 171°
2026-05-08 10:36 39.67523 50.37061 35141 ft 455 kts 171°
2026-05-08 10:36 39.61473 50.39465 35139 ft 455 kts 171°
2026-05-08 10:37 39.55391 50.41876 35141 ft 456 kts 171°
2026-05-08 10:37 39.49315 50.44281 35143 ft 456 kts 171°
2026-05-08 10:38 39.43277 50.46666 35144 ft 456 kts 171°
2026-05-08 10:38 39.37181 50.49069 35148 ft 456 kts 171°
2026-05-08 10:39 39.31128 50.51452 35146 ft 456 kts 171°
2026-05-08 10:39 39.25038 50.53844 35139 ft 456 kts 171°
2026-05-08 10:40 39.18987 50.56218 35145 ft 456 kts 171°
2026-05-08 10:40 39.12893 50.58603 35141 ft 456 kts 171°
2026-05-08 10:41 39.06843 50.60968 35138 ft 456 kts 171°
2026-05-08 10:41 39.00763 50.63339 35139 ft 455 kts 171°
2026-05-08 10:42 38.94687 50.65706 35139 ft 455 kts 171°
2026-05-08 10:42 38.88638 50.68057 35141 ft 455 kts 171°
2026-05-08 10:43 38.82563 50.70401 35139 ft 455 kts 171°
2026-05-08 10:43 38.76523 50.72712 35139 ft 455 kts 171°
2026-05-08 10:44 38.70463 50.75027 35144 ft 455 kts 171°
2026-05-08 10:44 38.64405 50.77340 35143 ft 455 kts 171°
2026-05-08 10:45 38.58313 50.79664 35144 ft 455 kts 172°
2026-05-08 10:45 38.52277 50.81962 35142 ft 454 kts 172°
2026-05-08 10:46 38.46211 50.84268 35142 ft 454 kts 172°
2026-05-08 10:46 38.40156 50.86565 35141 ft 453 kts 172°
2026-05-08 10:47 38.34146 50.88842 35137 ft 452 kts 172°
2026-05-08 10:47 38.28113 50.91123 35137 ft 450 kts 172°
2026-05-08 10:48 38.22143 50.93376 35142 ft 449 kts 173°
2026-05-08 10:48 38.16143 50.95637 35140 ft 447 kts 173°
2026-05-08 10:49 38.10211 50.97867 35139 ft 447 kts 173°
2026-05-08 10:49 38.04246 51.00108 35141 ft 446 kts 173°
2026-05-08 10:50 37.98319 51.02310 35137 ft 444 kts 174°
2026-05-08 10:50 37.92350 51.04341 35137 ft 442 kts 175°
2026-05-08 10:51 37.86421 51.06322 35137 ft 442 kts 175°
2026-05-08 10:51 37.80470 51.08334 35140 ft 442 kts 175°
2026-05-08 10:52 37.74521 51.10351 35144 ft 442 kts 175°
2026-05-08 10:52 37.68611 51.12348 35141 ft 441 kts 175°
2026-05-08 10:53 37.62663 51.14352 35138 ft 441 kts 175°
2026-05-08 10:53 37.56734 51.16348 35139 ft 441 kts 175°
2026-05-08 10:54 37.50836 51.18330 35141 ft 440 kts 175°
2026-05-08 10:54 37.44883 51.20328 35143 ft 440 kts 175°
2026-05-08 10:55 37.38981 51.22305 35137 ft 440 kts 175°
2026-05-08 10:55 37.33088 51.24277 35137 ft 439 kts 175°
2026-05-08 10:56 37.27168 51.26254 35138 ft 439 kts 175°
2026-05-08 10:56 37.21288 51.28215 35139 ft 439 kts 175°
2026-05-08 10:57 37.15370 51.30185 35133 ft 438 kts 175°
2026-05-08 10:57 37.06540 51.33117 35132 ft 438 kts 175°
2026-05-08 10:58 37.00667 51.35065 35133 ft 438 kts 175°
2026-05-08 10:58 36.94760 51.37020 35137 ft 439 kts 175°
2026-05-08 10:59 36.88835 51.38978 35138 ft 440 kts 175°
2026-05-08 10:59 36.82934 51.40925 35130 ft 441 kts 175°
2026-05-08 11:00 36.77995 51.42554 35128 ft 440 kts 175°
2026-05-08 11:00 36.72066 51.44506 35124 ft 440 kts 175°
2026-05-08 11:01 36.66267 51.47278 35130 ft 456 kts 165°
2026-05-08 11:01 36.60709 51.51345 35133 ft 471 kts 156°
2026-05-08 11:02 36.52775 51.58612 35137 ft 474 kts 155°
2026-05-08 11:03 36.47452 51.63506 35130 ft 474 kts 155°
2026-05-08 11:03 36.42157 51.68324 35152 ft 472 kts 155°
2026-05-08 11:04 36.36830 51.73137 35148 ft 471 kts 156°
2026-05-08 11:04 36.31535 51.77910 35161 ft 470 kts 156°
2026-05-08 11:05 36.26267 51.82653 35155 ft 472 kts 156°
2026-05-08 11:05 36.20935 51.87445 35175 ft 473 kts 156°
2026-05-08 11:06 36.15611 51.92221 35148 ft 475 kts 156°
2026-05-08 11:06 36.10253 51.97028 35138 ft 475 kts 156°
2026-05-08 11:07 36.04903 52.01818 35131 ft 473 kts 156°
2026-05-08 11:07 35.99607 52.06549 35127 ft 472 kts 156°
2026-05-08 11:08 35.94279 52.11301 35151 ft 471 kts 156°
2026-05-08 11:08 35.88967 52.16023 35111 ft 473 kts 156°
2026-05-08 11:09 35.83623 52.20774 35110 ft 468 kts 156°
2026-05-08 11:09 35.78371 52.25429 35080 ft 467 kts 156°
2026-05-08 11:10 35.73091 52.30107 35026 ft 466 kts 156°
2026-05-08 11:10 35.67852 52.34740 35087 ft 466 kts 156°
2026-05-08 11:11 35.62554 52.39414 35035 ft 468 kts 156°
2026-05-08 11:11 35.57293 52.44058 35022 ft 467 kts 156°
2026-05-08 11:12 35.52004 52.48698 35025 ft 466 kts 156°
2026-05-08 11:12 35.46713 52.53344 34989 ft 472 kts 156°
2026-05-08 11:13 35.41349 52.58052 34967 ft 474 kts 156°
2026-05-08 11:13 35.36035 52.62715 34935 ft 467 kts 156°
2026-05-08 11:14 35.30737 52.67344 34914 ft 465 kts 156°
2026-05-08 11:14 35.25377 52.71574 34917 ft 454 kts 163°
2026-05-08 11:15 35.19655 52.74602 34897 ft 443 kts 171°
2026-05-08 11:15 35.13807 52.77116 34881 ft 445 kts 171°
2026-05-08 11:16 35.07979 52.79629 34870 ft 448 kts 170°
2026-05-08 11:16 35.02076 52.82198 34870 ft 450 kts 170°
2026-05-08 11:17 34.96192 52.84763 34853 ft 452 kts 170°
2026-05-08 11:17 34.90247 52.87353 34858 ft 452 kts 170°
2026-05-08 11:18 34.84338 52.89926 34862 ft 453 kts 170°
2026-05-08 11:18 34.78387 52.92509 34858 ft 453 kts 170°
2026-05-08 11:19 34.72467 52.95076 34855 ft 454 kts 170°
2026-05-08 11:19 34.66506 52.97657 34852 ft 454 kts 170°
2026-05-08 11:20 34.60578 53.00220 34850 ft 454 kts 170°
2026-05-08 11:20 34.54607 53.02797 34847 ft 454 kts 170°
2026-05-08 11:21 34.48663 53.05358 34845 ft 454 kts 170°
2026-05-08 11:21 34.42692 53.07926 34844 ft 455 kts 170°
2026-05-08 11:22 34.36715 53.10494 34847 ft 455 kts 170°
2026-05-08 11:22 34.30765 53.13046 34840 ft 456 kts 170°
2026-05-08 11:23 34.24799 53.15602 34840 ft 456 kts 170°
2026-05-08 11:23 34.18798 53.18168 34845 ft 457 kts 171°
2026-05-08 11:24 34.12791 53.20733 34847 ft 457 kts 171°
2026-05-08 11:24 34.06807 53.23284 34851 ft 458 kts 171°
2026-05-08 11:25 34.00786 53.25847 34858 ft 459 kts 171°
2026-05-08 11:25 33.94735 53.28420 34860 ft 459 kts 171°
2026-05-08 11:26 33.88741 53.30964 34871 ft 460 kts 171°
2026-05-08 11:26 33.82684 53.33532 34876 ft 460 kts 171°
2026-05-08 11:27 33.76658 53.36083 34901 ft 461 kts 171°
2026-05-08 11:27 33.70593 53.38647 34887 ft 461 kts 171°
2026-05-08 11:28 33.64564 53.41191 34907 ft 462 kts 171°
2026-05-08 11:28 33.58503 53.43987 34904 ft 474 kts 164°
2026-05-08 11:29 33.52771 53.48174 34918 ft 491 kts 154°
2026-05-08 11:29 33.47535 53.53575 34926 ft 502 kts 148°
2026-05-08 11:30 33.42327 53.59182 34920 ft 501 kts 149°
2026-05-08 11:30 33.37288 53.64996 34929 ft 513 kts 142°
2026-05-08 11:31 33.32984 53.71902 34930 ft 522 kts 135°
2026-05-08 11:31 33.28854 53.79045 34929 ft 523 kts 135°
2026-05-08 11:32 33.24647 53.86136 34924 ft 523 kts 136°
2026-05-08 11:32 33.20042 53.92579 34927 ft 495 kts 153°
2026-05-08 11:32 33.17195 53.94768 34946 ft 479 kts 163°
2026-05-08 11:33 33.14162 53.96315 34929 ft 467 kts 173°
2026-05-08 11:33 33.11039 53.97163 34956 ft 456 kts 179°
2026-05-08 11:33 33.07911 53.97878 34939 ft 459 kts 179°
2026-05-08 11:34 33.01632 53.99380 34932 ft 463 kts 178°
2026-05-08 11:34 32.95316 54.00970 34929 ft 463 kts 178°
2026-05-08 11:35 32.89020 54.02566 34935 ft 460 kts 178°
2026-05-08 11:35 32.82806 54.04146 34936 ft 458 kts 178°
2026-05-08 11:36 32.76577 54.05801 34940 ft 456 kts 177°
2026-05-08 11:36 32.70401 54.07447 34945 ft 455 kts 177°
2026-05-08 11:37 32.64243 54.09077 34953 ft 454 kts 177°
2026-05-08 11:37 32.58055 54.10708 34960 ft 454 kts 177°
2026-05-08 11:38 32.51892 54.12330 34973 ft 455 kts 177°
2026-05-08 11:38 32.45690 54.13962 34976 ft 456 kts 177°
2026-05-08 11:39 32.39521 54.15583 34985 ft 456 kts 177°
2026-05-08 11:39 32.33302 54.17194 34992 ft 457 kts 178°
2026-05-08 11:40 32.27113 54.18775 34998 ft 457 kts 177°
2026-05-08 11:40 32.20883 54.20367 35010 ft 458 kts 177°
2026-05-08 11:41 32.14671 54.21957 35021 ft 458 kts 177°
2026-05-08 11:41 32.08422 54.23554 35055 ft 459 kts 177°
2026-05-08 11:42 32.02197 54.25141 35035 ft 461 kts 177°
2026-05-08 11:42 31.95920 54.26742 35037 ft 460 kts 177°
2026-05-08 11:43 31.89714 54.28713 35038 ft 467 kts 170°
2026-05-08 11:43 31.83714 54.31873 35045 ft 475 kts 163°
2026-05-08 11:44 31.77871 54.35459 35048 ft 478 kts 162°
2026-05-08 11:44 31.71935 54.39080 35085 ft 482 kts 162°
2026-05-08 11:45 31.65944 54.42697 35066 ft 483 kts 162°
2026-05-08 11:45 31.60012 54.46272 35062 ft 478 kts 163°
2026-05-08 11:46 31.54139 54.49800 35066 ft 474 kts 163°
2026-05-08 11:46 31.48268 54.53320 35080 ft 473 kts 163°
2026-05-08 11:47 31.42411 54.56825 35083 ft 475 kts 163°
2026-05-08 11:47 31.36502 54.60355 35087 ft 478 kts 163°
2026-05-08 11:48 31.31556 54.63306 35084 ft 481 kts 162°
2026-05-08 11:48 31.25559 54.66883 35076 ft 483 kts 162°
2026-05-08 11:49 31.19597 54.70436 35079 ft 484 kts 162°
2026-05-08 11:49 31.13583 54.74015 35084 ft 485 kts 162°
2026-05-08 11:50 31.07581 54.77580 35073 ft 485 kts 162°
2026-05-08 11:50 31.01554 54.81156 35072 ft 484 kts 162°
2026-05-08 11:51 30.95564 54.84703 35082 ft 485 kts 162°
2026-05-08 11:51 30.89549 54.88261 35079 ft 483 kts 162°
2026-05-08 11:52 30.83584 54.91785 35081 ft 482 kts 162°
2026-05-08 11:52 30.77591 54.95320 35090 ft 482 kts 162°
2026-05-08 11:53 30.71623 54.98829 35104 ft 482 kts 162°
2026-05-08 11:53 30.65625 55.02345 35112 ft 483 kts 162°
2026-05-08 11:54 30.59613 55.05865 35120 ft 484 kts 162°
2026-05-08 11:54 30.53587 55.09390 35110 ft 484 kts 162°
2026-05-08 11:55 30.47600 55.12889 35110 ft 484 kts 162°
2026-05-08 11:55 30.41581 55.16402 35098 ft 484 kts 162°
2026-05-08 11:56 30.35543 55.19921 35126 ft 485 kts 162°
2026-05-08 11:56 30.29549 55.23408 35122 ft 486 kts 161°
2026-05-08 11:57 30.23482 55.26933 35127 ft 486 kts 161°
2026-05-08 11:57 30.17452 55.30434 35122 ft 487 kts 161°
2026-05-08 11:58 30.11411 55.33935 35118 ft 487 kts 161°
2026-05-08 11:58 30.05347 55.37446 35115 ft 487 kts 161°
2026-05-08 11:59 29.96267 55.42682 35119 ft 487 kts 161°
2026-05-08 11:59 29.90181 55.46182 35117 ft 487 kts 161°
2026-05-08 12:00 29.84143 55.49652 35116 ft 488 kts 161°
2026-05-08 12:00 29.78038 55.53157 35119 ft 488 kts 161°
2026-05-08 12:01 29.71973 55.56634 35117 ft 489 kts 161°
2026-05-08 12:01 29.65872 55.60128 35115 ft 489 kts 161°
2026-05-08 12:02 29.59806 55.63597 35115 ft 490 kts 161°
2026-05-08 12:02 29.53577 55.66692 35103 ft 482 kts 169°
2026-05-08 12:03 29.47173 55.68674 35103 ft 478 kts 172°
2026-05-08 12:03 29.40708 55.70593 35087 ft 480 kts 172°
2026-05-08 12:04 29.34219 55.72560 35078 ft 481 kts 172°
2026-05-08 12:04 29.27766 55.74538 35075 ft 482 kts 172°
2026-05-08 12:05 29.21313 55.76516 35075 ft 482 kts 172°
2026-05-08 12:05 29.14798 55.78509 35066 ft 484 kts 172°
2026-05-08 12:06 29.08286 55.80496 35064 ft 485 kts 172°
2026-05-08 12:06 29.01792 55.82476 35056 ft 485 kts 172°
2026-05-08 12:07 28.95249 55.84469 35048 ft 486 kts 172°
2026-05-08 12:07 28.88737 55.86450 35036 ft 486 kts 172°
2026-05-08 12:08 28.82179 55.88435 35027 ft 486 kts 172°
2026-05-08 12:08 28.75667 55.90390 35012 ft 486 kts 172°
2026-05-08 12:09 28.69096 55.92360 34996 ft 487 kts 172°
2026-05-08 12:09 28.62570 55.94317 34978 ft 486 kts 172°
2026-05-08 12:10 28.56002 55.96286 34959 ft 486 kts 171°
2026-05-08 12:10 28.49485 55.98236 34940 ft 486 kts 171°
2026-05-08 12:11 28.42939 56.00193 34931 ft 485 kts 171°
2026-05-08 12:11 28.36411 56.02141 34917 ft 484 kts 171°
2026-05-08 12:12 28.29911 56.04079 34896 ft 485 kts 171°
2026-05-08 12:12 28.23368 56.06027 34902 ft 485 kts 171°
2026-05-08 12:13 28.16856 56.07963 34888 ft 485 kts 171°
2026-05-08 12:13 28.10347 56.09901 34881 ft 486 kts 171°
2026-05-08 12:14 28.03821 56.11845 34874 ft 486 kts 171°
2026-05-08 12:14 27.97251 56.13801 34880 ft 487 kts 171°
2026-05-08 12:15 27.90717 56.15743 34864 ft 486 kts 171°
2026-05-08 12:15 27.84187 56.17683 34855 ft 486 kts 171°
2026-05-08 12:16 27.77633 56.19626 34847 ft 486 kts 171°
2026-05-08 12:16 27.71065 56.21570 34829 ft 487 kts 170°
2026-05-08 12:17 27.64545 56.23498 34810 ft 486 kts 170°
2026-05-08 12:17 27.57980 56.25438 34794 ft 487 kts 170°
2026-05-08 12:18 27.51415 56.27375 34771 ft 488 kts 170°
2026-05-08 12:18 27.44877 56.29301 34752 ft 488 kts 170°
2026-05-08 12:19 27.38288 56.31241 34738 ft 488 kts 170°
2026-05-08 12:19 27.31755 56.33162 34730 ft 488 kts 170°
2026-05-08 12:20 27.25167 56.35034 34715 ft 482 kts 175°
2026-05-08 12:20 27.21862 56.35125 34717 ft 471 kts 192°
2026-05-08 12:20 27.18721 56.34206 34725 ft 464 kts 205°
2026-05-08 12:21 27.13420 56.30359 34721 ft 455 kts 226°
2026-05-08 12:21 27.08869 56.25359 34714 ft 459 kts 225°
2026-05-08 12:22 27.04219 56.20440 34722 ft 462 kts 225°
2026-05-08 12:22 26.99521 56.15487 34717 ft 463 kts 225°
2026-05-08 12:23 26.94877 56.10531 34717 ft 463 kts 225°
2026-05-08 12:23 26.90193 56.05540 34718 ft 462 kts 225°
2026-05-08 12:24 26.85550 56.00608 34720 ft 462 kts 225°
2026-05-08 12:24 26.80547 55.96133 34726 ft 463 kts 207°
2026-05-08 12:25 26.77497 55.95042 34732 ft 470 kts 193°
2026-05-08 12:25 26.74201 55.94812 34740 ft 478 kts 181°
2026-05-08 12:25 26.67656 55.96552 34716 ft 494 kts 156°
2026-05-08 12:26 26.61827 56.00698 34732 ft 500 kts 150°
2026-05-08 12:26 26.56029 56.05015 34725 ft 500 kts 151°
2026-05-08 12:27 26.50178 56.09160 34722 ft 500 kts 152°
2026-05-08 12:27 26.44266 56.13276 34718 ft 500 kts 152°
2026-05-08 12:28 26.38339 56.17260 34717 ft 498 kts 155°
2026-05-08 12:28 26.32243 56.20937 34715 ft 496 kts 156°
2026-05-08 12:29 26.26168 56.24549 34715 ft 496 kts 156°
2026-05-08 12:29 26.20072 56.28199 34719 ft 496 kts 155°
2026-05-08 12:30 26.14026 56.31835 34722 ft 496 kts 155°
2026-05-08 12:30 26.07943 56.35496 34725 ft 495 kts 155°
2026-05-08 12:31 26.01910 56.39120 34715 ft 495 kts 155°
2026-05-08 12:31 25.95847 56.42756 34715 ft 494 kts 155°
2026-05-08 12:32 25.89770 56.46396 34720 ft 494 kts 155°
2026-05-08 12:32 25.83738 56.50005 34721 ft 494 kts 155°
2026-05-08 12:33 25.77698 56.53614 34724 ft 495 kts 155°
2026-05-08 12:33 25.71620 56.57243 34721 ft 496 kts 155°
2026-05-08 12:34 25.65530 56.60874 34717 ft 496 kts 155°
2026-05-08 12:34 25.59470 56.64483 34721 ft 497 kts 155°
2026-05-08 12:35 25.53359 56.68120 34722 ft 497 kts 155°
2026-05-08 12:35 25.47301 56.71720 34726 ft 497 kts 155°
2026-05-08 12:36 25.41199 56.75346 34709 ft 496 kts 155°
2026-05-08 12:36 25.35101 56.78973 34711 ft 496 kts 155°
2026-05-08 12:37 25.29044 56.82569 34708 ft 496 kts 155°
2026-05-08 12:37 25.23985 56.85567 34719 ft 496 kts 155°
2026-05-08 12:38 25.16904 56.89757 34719 ft 496 kts 155°
2026-05-08 12:38 25.10824 56.93353 34711 ft 496 kts 155°
2026-05-08 12:39 25.05753 56.96349 34713 ft 496 kts 154°
2026-05-08 12:39 24.99652 56.99955 34710 ft 496 kts 154°
2026-05-08 12:40 24.93743 57.03854 34708 ft 497 kts 151°
2026-05-08 12:40 24.87865 57.07892 34710 ft 497 kts 150°
2026-05-08 12:41 24.81978 57.11922 34713 ft 497 kts 151°
2026-05-08 12:41 24.76111 57.15906 34714 ft 497 kts 151°
2026-05-08 12:42 24.70202 57.19903 34711 ft 497 kts 151°
2026-05-08 12:42 24.64334 57.23868 34709 ft 497 kts 151°
2026-05-08 12:43 24.58419 57.27862 34711 ft 497 kts 151°
2026-05-08 12:43 24.52551 57.31821 34614 ft 494 kts 151°
2026-05-08 12:44 24.49619 57.33798 34282 ft 495 kts 151°
2026-05-08 12:44 24.46662 57.35789 33887 ft 497 kts 150°
2026-05-08 12:44 24.43743 57.37754 33423 ft 500 kts 150°
2026-05-08 12:44 24.40759 57.39761 32798 ft 503 kts 150°
2026-05-08 12:45 24.37752 57.41783 31752 ft 506 kts 150°
2026-05-08 12:45 24.34773 57.43785 30757 ft 507 kts 150°
2026-05-08 12:45 24.31773 57.45802 30038 ft 502 kts 150°
2026-05-08 12:45 24.28804 57.47797 29241 ft 498 kts 150°
2026-05-08 12:46 24.25862 57.49772 28484 ft 492 kts 150°
2026-05-08 12:46 24.22992 57.51697 27786 ft 486 kts 150°
2026-05-08 12:46 24.20120 57.53623 27105 ft 480 kts 150°
2026-05-08 12:46 24.17275 57.55529 26436 ft 474 kts 150°
2026-05-08 12:47 24.14499 57.57388 25795 ft 469 kts 150°
2026-05-08 12:47 24.11715 57.59252 25155 ft 464 kts 150°
2026-05-08 12:47 24.08964 57.61094 24529 ft 459 kts 149°
2026-05-08 12:47 24.06289 57.62902 23992 ft 454 kts 149°
2026-05-08 12:48 24.03618 57.64717 23462 ft 450 kts 149°
2026-05-08 12:48 24.00958 57.66526 22869 ft 447 kts 149°
2026-05-08 12:48 23.98318 57.68317 22303 ft 443 kts 149°
2026-05-08 12:48 23.95737 57.70067 21790 ft 440 kts 149°
2026-05-08 12:49 23.93143 57.71822 21252 ft 436 kts 149°
2026-05-08 12:49 23.90667 57.73666 20728 ft 427 kts 139°
2026-05-08 12:49 23.88782 57.76165 20242 ft 426 kts 122°
2026-05-08 12:49 23.87562 57.79108 19756 ft 425 kts 107°
2026-05-08 12:50 23.86976 57.82214 19283 ft 421 kts 101°
2026-05-08 12:50 23.86501 57.85373 18773 ft 420 kts 100°
2026-05-08 12:50 23.86042 57.88525 18274 ft 419 kts 100°
2026-05-08 12:50 23.85577 57.91674 17730 ft 418 kts 100°
2026-05-08 12:51 23.85100 57.94808 17198 ft 415 kts 101°
2026-05-08 12:51 23.84134 58.00942 16208 ft 408 kts 101°
2026-05-08 12:51 23.83645 58.03990 15733 ft 404 kts 101°
2026-05-08 12:52 23.83165 58.06962 15332 ft 398 kts 101°
2026-05-08 12:52 23.82245 58.12659 14626 ft 359 kts 101°
2026-05-08 12:52 23.81820 58.15287 14214 ft 341 kts 101°
2026-05-08 12:53 23.81422 58.17746 13822 ft 325 kts 101°
2026-05-08 12:53 23.81036 58.20122 13411 ft 311 kts 101°
2026-05-08 12:53 23.80664 58.22410 12968 ft 300 kts 101°
2026-05-08 12:53 23.80304 58.24621 12506 ft 291 kts 102°
2026-05-08 12:54 23.79951 58.26785 11937 ft 287 kts 102°
2026-05-08 12:54 23.79605 58.28901 11372 ft 284 kts 102°
2026-05-08 12:54 23.79255 58.31044 10825 ft 290 kts 102°
2026-05-08 12:54 23.78894 58.33250 10281 ft 298 kts 101°
2026-05-08 12:55 23.78526 58.35505 9744 ft 304 kts 101°
2026-05-08 12:55 23.78159 58.37745 9159 ft 300 kts 101°
2026-05-08 12:55 23.77795 58.39972 8563 ft 295 kts 101°
2026-05-08 12:55 23.77271 58.42110 7964 ft 289 kts 117°
2026-05-08 12:56 23.76062 58.43824 7402 ft 283 kts 137°
2026-05-08 12:56 23.74585 58.45233 6856 ft 280 kts 141°
2026-05-08 12:56 23.73097 58.46550 6299 ft 278 kts 141°
2026-05-08 12:56 23.71471 58.47682 5739 ft 276 kts 153°
2026-05-08 12:57 23.69737 58.48564 5188 ft 274 kts 156°
2026-05-08 12:57 23.67994 58.49395 4613 ft 270 kts 156°
2026-05-08 12:57 23.66251 58.50039 4021 ft 266 kts 173°
2026-05-08 12:57 23.64420 58.50147 3551 ft 260 kts 185°
2026-05-08 12:58 23.62735 58.49619 3246 ft 244 kts 217°
2026-05-08 12:58 23.61681 58.48339 3071 ft 220 kts 251°
2026-05-08 12:58 23.61502 58.46799 2892 ft 194 kts 287°
2026-05-08 12:58 23.61780 58.45431 2641 ft 182 kts 279°
2026-05-08 12:59 23.61821 58.44108 2476 ft 171 kts 275°
2026-05-08 12:59 23.61854 58.42824 2256 ft 167 kts 274°
2026-05-08 12:59 23.61830 58.41576 2055 ft 165 kts 271°
2026-05-08 12:59 23.61751 58.40367 1864 ft 155 kts 271°
2026-05-08 13:00 23.61663 58.39208 1675 ft 153 kts 270°
2026-05-08 13:00 23.61572 58.38055 1489 ft 151 kts 269°
2026-05-08 13:00 23.61482 58.36918 1309 ft 150 kts 268°
2026-05-08 13:00 23.61391 58.35784 1136 ft 152 kts 267°
2026-05-08 13:01 23.61298 58.34630 966 ft 154 kts 269°
2026-05-08 13:01 23.61205 58.33461 745 ft 155 kts 268°
2026-05-08 13:01 23.61113 58.32301 587 ft 154 kts 269°
2026-05-08 13:01 23.61000 58.31104 337 ft 160 kts 266°
2026-05-08 13:02 23.60916 58.29939 139 ft 150 kts 268°
2026-05-08 13:02 23.60834 58.28827 42 ft 140 kts 267°
2026-05-08 13:02 23.60766 58.27928 38 ft 96 kts 265°
2026-05-08 13:02 23.60721 58.27368 40 ft 52 kts 265°
2026-05-08 13:03 23.60677 58.27106 41 ft 18 kts 248°
2026-05-08 13:03 23.60617 58.26988 41 ft 18 kts 236°
2026-05-08 13:03 23.60546 58.26877 40 ft 18 kts 235°
2026-05-08 13:03 23.60460 58.26787 39 ft 18 kts 186°
2026-05-08 13:04 23.60416 58.26890 39 ft 18 kts 82°
2026-05-08 13:04 23.60427 58.27002 39 ft 10 kts 85°
2026-05-08 13:04 23.60433 58.27077 39 ft 10 kts 85°
2026-05-08 13:04 23.60440 58.27160 39 ft 12 kts 85°
2026-05-08 13:05 23.60447 58.27253 39 ft 13 kts 85°
2026-05-08 13:05 23.60455 58.27356 39 ft 14 kts 84°
2026-05-08 13:05 23.60465 58.27469 39 ft 15 kts 84°
2026-05-08 13:05 23.60466 58.27587 39 ft 16 kts 107°
2026-05-08 13:06 23.60398 58.27689 39 ft 17 kts 130°
2026-05-08 13:06 23.60319 58.27793 39 ft 18 kts 130°
2026-05-08 13:06 23.60240 58.27905 39 ft 19 kts 110°
2026-05-08 13:06 23.60241 58.28049 39 ft 20 kts 85°
2026-05-08 13:07 23.60253 58.28201 39 ft 20 kts 85°
2026-05-08 13:07 23.60266 58.28352 39 ft 9 kts 85°
2026-05-08 13:07 23.60257 58.28389 38 ft 5 kts 136°
2026-05-08 13:07 23.60218 58.28400 39 ft 6 kts 173°
2026-05-08 13:08 23.60183 58.28404 39 ft 3 kts 175°
2026-05-08 13:08 23.60165 58.28406 39 ft 1 kts 175°
2026-05-08 13:08 23.60162 58.28406 39 ft 0 kts 175°